Preview of NWS' New Version of Forecast
This preview is not operational and should not be used for support decisions.

Regional Weather Roundup (RWR)

Issued by National Weather Service (NWS)

                            
000
ASUS42 KTBW 222216
RWRFL 
FLORIDA REGIONAL WEATHER ROUNDUP
NATIONAL WEATHER SERVICE TAMPA BAY RUSKIN FL
500 PM EST FRI FEB 22 2019

NOTE: "FAIR" INDICATES FEW OR NO CLOUDS BELOW 12,000 FEET WITH NO
SIGNIFICANT WEATHER AND/OR OBSTRUCTIONS TO VISIBILITY.

FLZ001>010-012>015-112-114-115-222300-
PANHANDLE FLORIDA
  
CITY           SKY/WX    TMP DP  RH WIND       PRES   REMARKS
PENSACOLA      FOG       69  68  96 E10       30.08S VSB 1/4          
PENSACOLA NAS  FOG       69  69 100 E10       30.08S VSB 1/2          
MILTON NAS     CLOUDY    72  70  93 SE8       30.09                   
CRESTVIEW      PTSUNNY   77  68  73 SE9       30.11S                  
DUKE FIELD     CLOUDY    73  70  88 SE9       30.10S                  
VALPARAISO     CLOUDY    70  68  94 SE12      30.09S                  
MARY ESTHER    CLOUDY    69  67  92 E10       30.09S                  
PANAMA CITY    CLOUDY    74  68  81 S14       30.11S                  
TYNDALL AFB    PTSUNNY   75  69  82 S16       30.10F                  
APALACHICOLA   CLOUDY    69  65  86 SE7       30.14F                  

STATION/POSITION SKY/WX   TEMP    WIND        PRES    WAVE   SWELL
                          AIR SEA DIR/SP/G            HT/PER HT/PER
                          (F)     (DEG/KT/KT) (MB)    (FT/S) (FT/S)
30.1N   87.6W              67      90/  8/ 10 1018.6R   2/ 6   2/ 6
29.2N   88.2W                     130/ 10/ 12 1017.9F   3/ 7   3/ 7
PANAMA CITY BEAC           67 66  120/ 10/ 11 1019.9F
TOWER C                    66      80/  7/  7 1020.5S

$$
FLZ011-016>038-118-127-128-134-139-239-222300-
NORTH FLORIDA
  
CITY           SKY/WX    TMP DP  RH WIND       PRES   REMARKS
MARIANNA       CLOUDY    78  68  71 S7        30.10F                  
TALLAHASSEE    PTSUNNY   78  68  71 S10       30.12S                  
PERRY          CLOUDY    80  66  63 SW10      30.14S                  
LIVE OAK       PTSUNNY   81  64  57 CALM      30.12S                  
CROSS CITY     FAIR      81  65  58 SW6       30.13R                  
LAKE CITY      CLOUDY    84  59  42 CALM      30.12S                  
GAINESVILLE    CLOUDY    84  67  56 SE3       30.14F                  
WILLISTON        N/A    N/A N/A N/A MISG        N/A                   
PALATKA        PTSUNNY   82  66  57 NE5       30.13R                  
MAYPORT NAS    PTSUNNY   74  67  78 S12       30.13S                  
JACKSONVILLE   PTSUNNY   80  64  58 E9        30.12R                  
JAX NAS        PTSUNNY   80  66  62 E9        30.13S                  
JAX CECIL      PTSUNNY   84  61  45 CALM      30.12S                  
FERNANDINA BEA CLOUDY    72  65  78 SE7       30.14R                  
PALM COAST     MOSUNNY   79  64  61 E7        30.13F                  

STATION/POSITION SKY/WX   TEMP    WIND        PRES    WAVE   SWELL
                          AIR SEA DIR/SP/G            HT/PER HT/PER
                          (F)     (DEG/KT/KT) (MB)    (FT/S) (FT/S)
SHELL POINT      NOT AVBL
KEATON BEACH               73     280/  2/  3 1020.7F
CEDAR KEY                  76     290/  5/  7 1020.1S
FERNANDINA                 75 68  140/  6/  9 1021.2R
30.7N   81.3W                 64                N/A     2/ 8
MAYPORT                    74 65  160/  5/ 12 1020.5R
31.4N   80.9W              65 62  150/  6/  8 1020.7R   2/ 8   2/ 8
ST AUGUSTINE               66 62  140/  4/  4 1020.8S

$$
FLZ040-043>046-052-053-057-058-063-144-222300-
INTERIOR CENTRAL FLORIDA
  
CITY           SKY/WX    TMP DP  RH WIND       PRES   REMARKS
OCALA          FAIR      84  62  47 CALM      30.12R                  
LEESBURG       FAIR      84  62  47 S5        30.12F                  
SANFORD        FAIR      83  64  52 E3        30.12S                  
ORLANDO EXEC   FAIR      85  62  46 SW6       30.11F                  
ORLANDO INTL   FAIR      85  62  46 SW5       30.11F                  
KISSIMMEE      FAIR      87  61  41 S7        30.12S                  
WINTER HAVEN   FAIR      87  60  40 E7        30.12S                  
LAKELAND       MOSUNNY   88  61  40 SE6       30.11S                  
BARTOW         MOSUNNY   86  59  39 S7        30.10S                  
SEBRING        FAIR      86  64  48 SE9       30.11S                  
OKEECHOBEE     FAIR      82  66  57 S6        30.10F                  

$$
FLZ041-047-054-059-064-141-147-222300-
EAST CENTRAL FLORIDA
  
CITY           SKY/WX    TMP DP  RH WIND       PRES   REMARKS
ORMOND BEACH   MOSUNNY   77  68  73 E8        30.13S                  
DAYTONA BEACH  FAIR      79  69  71 E8        30.13S                  
DELAND         FAIR      82  66  57 E12       30.12S                  
NEW SMYRNA BEA MOSUNNY   77  68  73 SE9       30.15S                  
JFK SPACE CTR  FAIR      79  70  73 SE13      30.13R                  
TITUSVILLE     MOSUNNY   82  70  65 SE10      30.14S                  
CAPE CANAVERAL FAIR      78  71  78 SE14      30.12S                  
PATRICK AFB    FAIR      75  72  89 E10       30.13S                  
MELBOURNE      FAIR      80  70  71 E10       30.13S                  
VERO BEACH     FAIR      80  70  71 E13       30.13S                  
FT PIERCE      FAIR      80  70  71 E15       30.12S                  
STUART         MOSUNNY   82  70  65 SE12      30.13F                  

STATION/POSITION SKY/WX   TEMP    WIND        PRES    WAVE   SWELL
                          AIR SEA DIR/SP/G            HT/PER HT/PER
                          (F)     (DEG/KT/KT) (MB)    (FT/S) (FT/S)
28.5N   80.2W              74      90/  4/  6 1021.2F   3/ 7   3/ 7
28.9N   78.5W              76 76  140/  6/  8 1022.3F   4/ 8   3/ 8
TRIDENT PIER               74 70   90/  8/ 11 1021.5F
28.4N   80.5W                 70                N/A     2/ 7

$$
FLZ050-056-061-142-242-148-248-149-249-151-251-155-255-
160-260-222300-
WEST CENTRAL FLORIDA
  
CITY           SKY/WX    TMP DP  RH WIND       PRES   REMARKS
CRYSTAL RIVER  CLOUDY    81  68  65 W7        30.12S                  
INVERNESS      PTSUNNY   84  64  51 CALM      30.11S                  
BROOKSVILLE    CLOUDY    81  69  67 W13       30.12R                  
CLEARWATER AIR FAIR      81  66  61 SW8       30.10S                  
ST PETE CLEARW FAIR      81  66  60 SW13      30.10S                  
TAMPA INTL     FAIR      83  68  60 SW8       30.10S                  
TAMPA EXEC     PTSUNNY   84  61  45 E3        30.11S                  
PLANT CITY     FAIR      86  61  42 E3        30.12S                  
MACDILL AFB    FAIR      79  69  70 SW12      30.10S                  
PETER O KNIGHT CLOUDY    82  72  69 SW9       30.11S                  
ST PETERSBURG  FAIR      81  70  69 SW12      30.09S                  
SARASOTA       FAIR      80  69  69 SW10      30.08F                  
VENICE         FAIR      81  72  74 S10       30.11S                  

STATION/POSITION SKY/WX   TEMP    WIND        PRES    WAVE   SWELL
                          AIR SEA DIR/SP/G            HT/PER HT/PER
                          (F)     (DEG/KT/KT) (MB)    (FT/S) (FT/S)
27.3N   84.2W                 73                N/A     3/ 5
CLEARWATER BEACH           74 72  220/  7/  8 1019.9R
MIDDLE TAMPA BAY           74     300/  6/  7 1019.7F
VENICE                     75 72  200/  9/  9 1019.2F

$$
FLZ066-069-070-075>078-162-262-165-265-222300-
SOUTHWEST FLORIDA AND KEYS
  
CITY           SKY/WX    TMP DP  RH WIND       PRES   REMARKS
PUNTA GORDA    FAIR      83  67  58 SW9       30.11S                  
FT MYERS       FAIR      84  64  50 W8        30.08F                  
SOUTHWEST INTL FAIR      82  65  56 W12       30.09S                  
NAPLES         FAIR      82  69  64 S12       30.09S                  
MARCO ISLAND   FAIR     N/A N/A N/A S7        30.10S                  
IMMOKALEE      FAIR      86  64  48 SE8       30.07S                  
MARATHON       FAIR      84  72  67 E10       30.09F                  
KEY WEST NAS   FAIR      83  72  69 E14       30.09S                  
KEY WEST INTL  FAIR      82  72  71 E12       30.09F                  

STATION/POSITION SKY/WX   TEMP    WIND        PRES    WAVE   SWELL
                          AIR SEA DIR/SP/G            HT/PER HT/PER
                          (F)     (DEG/KT/KT) (MB)    (FT/S) (FT/S)
NAPLES                     78 76  160/  8/  9 1019.0F
26.0N   85.6W              79 80  130/ 10/ 14 1018.2F   4/ 6   3/ 6
DRY TORTUGAS               79     100/ 11/ 12 1018.6F
SAND KEY                   78                 1018.9F
SOMBRERO KEY               79                 1018.5S
LONG KEY                   78 80   90/  9/ 10 1019.1F
MOLASSES REEF              79 78  120/  8/  9 1020.0S

$$
FLZ067-068-071>074-168-172>174-222300-
SOUTHEAST FLORIDA 
  
CITY           SKY/WX    TMP DP  RH WIND       PRES   REMARKS
W PALM BEACH   FAIR      81  71  71 SE15      30.12F                  
BOCA RATON     MOSUNNY   81  73  78 SE9G17    30.13S                  
FT LAUDER-EXEC CLOUDY    82  74  76 E13       30.12F                  
FT LAUDERDALE  PTSUNNY   80  75  84 SE12      30.12S                  
POMPANO BEACH  PTSUNNY   80  72  76 SE9       30.13S                  
PEMBROKE PINES FAIR      81  71  71 SE12      30.14S                  
OPA LOCKA      FAIR      81  71  71 SE14      30.13S                  
MIAMI          PTSUNNY   82  73  74 SE14      30.12S                  
WEST KENDALL   FAIR      83  71  67 SE13      30.12R                  
HOMESTEAD      CLOUDY    81  73  76 E8        30.11S                  

STATION/POSITION SKY/WX   TEMP    WIND        PRES    WAVE   SWELL
                          AIR SEA DIR/SP/G            HT/PER HT/PER
                          (F)     (DEG/KT/KT) (MB)    (FT/S) (FT/S)
PORT EVERGLADES            80     130/  6/  9 1020.2S
VIRGINIA KEY               79 80  100/  6/  8 1019.7R
LAKE WORTH                 78 79  140/ 13/ 15 1021.2F
FOWEY ROCKS                78 78  110/  7/  7 1020.9R
SETTLEMENT POINT           79     150/ 11/ 14 1021.1S

$$